IW2HUZ-13 Weather Reports


time (UTC)temp
C
wind
direction
speed
KPH
gust
KPH
rain 1hr
cm
rain 24hr
cm
rain mn
cm
humidity
%
barometer
mb
20260506051006 6 65 6.4 27.4 0.13 1.65 0.61 99 1002.9
20260506045005 6 85 9.7 25.7 0.10 1.63 0.56 99 1003.1
20260506044506 6 73 8.0 25.7 0.05 1.60 0.53 99 1003.1
20260506044006 6 78 11.3 22.5 0.03 1.55 0.51 99 1003.1
20260506043506 6 82 6.4 17.7 0.05 1.55 0.51 99 1003.3
20260506043005 6 79 9.7 25.7 0.15 1.55 0.51 99 1003.3
20260506042506 6 75 6.4 25.7 0.15 1.52 0.48 99 1003.2
20260506042005 6 77 6.4 17.7 0.15 1.52 0.48 99 1003.5
20260506041506 6 83 6.4 17.7 0.15 1.52 0.48 99 1003.1
20260506041005 6 80 8.0 17.7 0.15 1.52 0.48 99 1003.5
20260506040506 6 76 6.4 20.9 0.18 1.52 0.48 99 1003.2
20260506040006 6 75 6.4 20.9 0.20 1.52 0.48 99 1003.6
20260506035505 6 84 4.8 22.5 0.23 1.52 0.48 99 1003.3
20260506035006 6 82 3.2 22.5 0.28 1.52 0.48 99 1003.4
20260506034506 6 85 3.2 20.9 0.28 1.52 0.48 99 1003.4
20260506034005 6 95 4.8 20.9 0.28 1.52 0.48 99 1003.4
20260506033506 6 91 12.9 20.9 0.23 1.50 0.46 99 1003.3
20260506033006 6 90 8.0 20.9 0.15 1.42 0.36 99 1003.5
20260506032505 6 89 6.4 20.9 0.13 1.37 0.33 99 1003.5
20260506032005 6 85 3.2 17.7 0.13 1.37 0.33 99 1003.5
20260506031505 6 85 6.4 22.5 0.13 1.37 0.33 99 1003.6
20260506031006 6 90 4.8 22.5 0.13 1.37 0.33 99 1003.7
20260506030505 6 87 6.4 20.9 0.13 1.35 0.30 99 1003.7
20260506030005 6 89 6.4 12.9 0.10 1.32 0.28 99 1003.9
20260506025506 6 91 6.4 20.9 0.05 1.30 0.23 99 1003.7
20260506025006 6 87 3.2 20.9 0.03 1.27 0.20 99 1004.2
20260506024505 6 82 6.4 20.9 0.03 1.27 0.20 99 1004.1
20260506024006 6 77 9.7 17.7 0.03 1.27 0.20 99 1004.0
20260506023505 6 84 4.8 17.7 0.03 1.27 0.20 99 1004.1
20260506023006 6 90 4.8 12.9 0.03 1.27 0.20 99 1004.0
20260506022505 6 77 6.4 25.7 0.03 1.27 0.20 99 1004.3
20260506022005 6 73 6.4 25.7 0.03 1.27 0.20 99 1004.4
20260506021506 6 88 6.4 20.9 0.03 1.27 0.20 99 1004.3
20260506021005 6 91 4.8 17.7 0.03 1.27 0.20 99 1004.3
20260506020506 6 67 6.4 17.7 0.00 1.22 0.18 99 1004.4
20260506020005 6 65 4.8 17.7 0.00 1.22 0.18 99 1004.5
20260506015506 6 76 4.8 12.9 0.00 1.22 0.18 99 1004.2
20260506015006 6 88 6.4 12.9 0.00 1.22 0.18 99 1004.4
20260506014505 6 90 3.2 12.9 0.00 1.22 0.18 99 1004.5
20260506014006 6 94 6.4 9.7 0.00 1.22 0.18 99 1004.5
20260506013506 6 75 3.2 12.9 0.00 1.22 0.18 99 1004.5
20260506013005 6 61 1.6 12.9 0.00 1.22 0.18 99 1004.5
20260506012506 6 71 4.8 17.7 0.00 1.22 0.18 99 1004.6
20260506012005 6 77 4.8 17.7 0.00 1.22 0.18 99 1004.7
20260506011505 6 74 6.4 17.7 0.00 1.22 0.18 99 1004.8
20260506011006 6 79 3.2 12.9 0.00 1.22 0.18 99 1004.7
20260506010505 6 85 4.8 12.9 0.03 1.22 0.18 99 1004.8
20260506010006 6 84 6.4 12.9 0.03 1.22 0.18 99 1004.8
20260506005505 6 81 3.2 12.9 0.10 1.22 0.18 99 1004.9
20260506005006 6 80 3.2 14.5 0.10 1.22 0.18 99 1005.1
20260506003505 6 82 6.4 17.7 0.18 1.22 0.18 99 1005.2
20260506003005 6 80 6.4 12.9 0.18 1.22 0.18 99 1005.1
20260506002506 6 83 3.2 12.9 0.18 1.22 0.18 99 1005.1
20260506001506 6 86 6.4 14.5 0.18 1.22 0.18 99 1005.2
20260506001005 6 77 6.4 14.5 0.18 1.22 0.18 99 1005.1
20260506000505 6 77 3.2 6.4 0.15 1.19 0.15 99 1005.3
20260505235505 6 84 3.2 12.9 0.10 1.14 0.10 99 1005.5
20260505235005 6 86 3.2 9.7 0.10 1.14 0.10 99 1005.5
20260505234506 6 87 3.2 9.7 0.05 1.12 0.05 99 1005.6
20260505234006 6 82 3.2 9.7 0.00 1.04 0.00 99 1005.6
20260505233505 6 85 3.2 9.7 0.00 1.04 0.00 99 1005.6
20260505233005 6 90 3.2 9.7 0.00 1.04 0.00 99 1005.5
20260505232506 6 83 3.2 9.7 0.00 1.04 0.00 99 1005.7
20260505231506 6 94 3.2 9.7 0.00 1.04 0.00 99 1005.8
20260505231005 6 91 3.2 6.4 0.00 1.04 0.00 99 1006.0
20260505230506 6 90 3.2 9.7 0.00 1.04 0.00 99 1005.9
20260505230005 6 90 3.2 9.7 0.00 1.04 0.00 99 1005.8
20260505225505 6 91 3.2 11.3 0.00 1.04 0.00 99 1005.8
20260505225005 6 102 4.8 11.3 0.00 1.04 0.00 99 1005.6
20260505224506 6 109 4.8 11.3 0.00 1.04 0.00 99 1006.0
20260505224005 6 97 3.2 9.7 0.00 1.04 0.00 99 1006.1
20260505223506 6 89 3.2 9.7 0.00 1.04 0.00 99 1005.9
20260505223006 6 95 4.8 9.7 0.00 1.04 0.00 99 1005.7
20260505222505 6 95 3.2 9.7 0.03 1.04 0.00 99 1005.9
20260505222005 6 86 3.2 9.7 0.03 1.04 0.00 99 1006.0
20260505221505 6 84 1.6 6.4 0.05 1.04 0.00 99 1005.9
20260505221006 6 81 3.2 9.7 0.05 1.04 0.00 99 1005.9
20260505220009 6 89 1.6 6.4 0.05 1.04 0.00 99 1006.2
20260505215506 6 87 3.2 6.4 0.05 1.04 1.04 99 1006.1
20260505215005 6 83 3.2 17.7 0.05 1.04 1.04 99 1006.1
20260505214506 6 81 3.2 17.7 0.05 1.04 1.04 99 1006.1
20260505213506 6 76 6.4 12.9 0.15 1.04 1.04 99 1006.2
20260505213005 6 79 1.6 12.9 0.18 1.04 1.04 99 1006.4
20260505212506 6 89 4.8 14.5 0.15 1.02 1.02 99 1006.3
20260505211505 6 86 4.8 11.3 0.13 0.99 0.99 99 1006.3
20260505211006 6 85 0.0 12.9 0.13 0.99 0.99 99 1006.4
20260505210505 6 81 4.8 12.9 0.15 0.99 0.99 99 1006.5
20260505210006 6 85 4.8 14.5 0.15 0.99 0.99 99 1006.4
20260505205505 6 77 3.2 17.7 0.15 0.99 0.99 99 1006.5
20260505205006 6 76 3.2 17.7 0.15 0.99 0.99 99 1006.5
20260505204505 6 80 3.2 11.3 0.15 0.99 0.99 99 1006.5
20260505204006 6 73 4.8 11.3 0.13 0.97 0.97 99 1006.6
20260505203505 6 78 4.8 11.3 0.10 0.89 0.89 99 1006.5
20260505203006 6 88 6.4 9.7 0.05 0.86 0.86 99 1006.5
20260505202505 6 91 3.2 11.3 0.05 0.86 0.86 99 1006.4
20260505201505 6 92 4.8 11.3 0.10 0.86 0.86 99 1006.6
20260505201006 6 74 6.4 11.3 0.05 0.84 0.84 99 1006.6
20260505200505 6 73 3.2 12.9 0.05 0.84 0.84 99 1006.4
20260505200006 6 83 4.8 12.9 0.05 0.84 0.84 99 1006.6
20260505195006 6 76 6.4 14.5 0.05 0.84 0.84 99 1006.3
20260505194006 6 88 3.2 12.9 0.05 0.84 0.84 99 1006.0
20260505193506 6 92 6.4 12.9 0.03 0.81 0.81 99 1006.2
20260505193006 6 90 3.2 11.3 0.03 0.81 0.81 99 1006.2
20260505192505 6 81 3.2 11.3 0.03 0.81 0.81 99 1006.5
20260505192006 6 80 6.4 11.3 0.05 0.81 0.81 99 1006.2
20260505191505 6 78 3.2 11.3 0.05 0.79 0.79 99 1006.3
20260505191006 6 80 4.8 17.7 0.05 0.79 0.79 99 1006.3
20260505190505 6 80 4.8 17.7 0.05 0.79 0.79 99 1006.1
20260505185505 6 83 4.8 12.9 0.05 0.79 0.79 99 1006.0
20260505185006 6 74 3.2 6.4 0.10 0.79 0.79 99 1005.9
20260505184505 6 75 3.2 17.7 0.10 0.79 0.79 99 1006.1
20260505183505 6 73 4.8 12.9 0.10 0.79 0.79 99 1006.2
20260505183006 6 67 4.8 17.7 0.10 0.79 0.79 99 1006.1
20260505182006 6 78 3.2 12.9 0.05 0.76 0.76 99 1006.0
20260505181505 6 78 4.8 11.3 0.03 0.71 0.71 99 1006.2
20260505180506 6 86 1.6 14.5 0.05 0.71 0.71 99 1006.1
20260505180006 6 84 3.2 14.5 0.05 0.71 0.71 99 1006.1
20260505175505 6 81 4.8 14.5 0.05 0.71 0.71 99 1006.0
20260505175005 6 82 3.2 9.7 0.03 0.69 0.69 99 1006.1
20260505174006 6 75 3.2 9.7 0.03 0.69 0.69 99 1006.0
20260505173506 6 77 3.2 9.7 0.03 0.69 0.69 99 1006.2
20260505173006 6 83 3.2 9.7 0.03 0.69 0.69 99 1006.1
20260505172006 6 78 1.6 11.3 0.03 0.69 0.69 99 1006.1
20260505171506 6 73 3.2 11.3 0.03 0.69 0.69 99 1006.1
20260505171006 6 76 3.2 6.4 0.03 0.69 0.69 99 1006.1
20260505170505 6 76 3.2 6.4 0.00 0.66 0.66 99 1006.1
20260505170006 6 77 3.2 9.7 0.00 0.66 0.66 99 1006.0
20260505165506 6 77 3.2 9.7 0.00 0.66 0.66 99 1006.1
20260505165005 6 74 1.6 14.5 0.00 0.66 0.66 99 1005.9
20260505164506 6 82 3.2 14.5 0.00 0.66 0.66 99 1006.2
20260505164006 6 86 1.6 14.5 0.00 0.66 0.66 99 1005.8
20260505163505 6 74 3.2 14.5 0.00 0.66 0.66 99 1006.2
20260505163007 6 70 4.8 14.5 0.00 0.66 0.66 99 1006.0
20260505162506 6 74 3.2 6.4 0.00 0.66 0.66 99 1006.1
20260505162006 6 83 3.2 9.7 0.00 0.66 0.66 99 1006.1
20260505161505 6 86 3.2 14.5 0.00 0.66 0.66 99 1006.0
20260505161005 6 78 1.6 14.5 0.00 0.66 0.66 99 1006.4
20260505160505 6 77 3.2 12.9 0.00 0.66 0.66 99 1006.2
20260505153006 6 73 3.2 12.9 0.03 0.66 0.66 99 1006.4
20260505152505 6 77 3.2 17.7 0.03 0.66 0.66 99 1006.4
20260505152006 6 79 6.4 17.7 0.03 0.66 0.66 99 1006.2
20260505151506 6 74 3.2 17.7 0.03 0.66 0.66 99 1006.4
20260505151005 6 70 9.7 17.7 0.05 0.66 0.66 99 1006.4
20260505150506 6 81 6.4 12.9 0.05 0.66 0.66 99 1006.3
20260505140506 6 90 1.6 9.7 0.05 0.61 0.61 99 1006.4
20260505124506 5 75 6.4 17.7 0.03 0.53 0.53 99 1006.8
20260505124006 5 72 3.2 17.7 0.03 0.53 0.53 99 1006.6
20260505123505 5 73 6.4 17.7 0.03 0.53 0.53 99 1006.5
20260505122505 5 70 3.2 17.7 0.03 0.53 0.53 99 1006.9
20260505121505 5 68 6.4 12.9 0.00 0.51 0.51 99 1006.6
20260505121005 5 62 3.2 9.7 0.00 0.51 0.51 99 1006.8
20260505120006 5 62 4.8 11.3 0.00 0.51 0.51 99 1006.8
20260505115505 5 57 4.8 6.4 0.00 0.51 0.51 99 1006.7
20260505115006 5 49 3.2 6.4 0.00 0.51 0.51 99 1006.6
20260505114505 5 52 3.2 6.4 0.00 0.51 0.51 99 1007.0
20260505114006 5 61 3.2 9.7 0.00 0.51 0.51 99 1006.8
20260505113006 5 57 3.2 9.7 0.00 0.51 0.51 99 1006.9
20260505112505 5 68 4.8 12.9 0.00 0.51 0.51 99 1006.8
20260505112006 5 77 4.8 12.9 0.00 0.51 0.51 99 1006.7
20260505111505 5 73 3.2 14.5 0.00 0.51 0.51 99 1007.1
20260505111006 5 67 4.8 14.5 0.00 0.51 0.51 99 1006.9
20260505110506 5 68 4.8 11.3 0.00 0.51 0.51 99 1007.0
20260505102005 5 55 4.8 9.7 0.03 0.51 0.51 99 1006.8
20260505101506 5 51 4.8 20.9 0.03 0.51 0.51 99 1006.8
20260505101006 5 62 4.8 20.9 0.03 0.51 0.51 99 1006.9
20260505100505 5 67 6.4 20.9 0.05 0.51 0.51 99 1007.0
20260505100006 5 64 6.4 12.9 0.05 0.51 0.51 99 1006.8
20260505095505 5 72 4.8 12.9 0.05 0.51 0.51 99 1006.8
20260505095006 5 68 3.2 11.3 0.05 0.51 0.51 99 1007.1
20260505094505 5 65 3.2 11.3 0.03 0.48 0.48 99 1006.9
20260505094006 5 75 6.4 11.3 0.03 0.48 0.48 99 1007.0
20260505093505 5 70 3.2 14.5 0.03 0.48 0.48 99 1007.2
20260505092505 5 78 6.4 22.5 0.05 0.48 0.48 99 1007.1
20260505092005 5 82 12.9 22.5 0.05 0.48 0.48 99 1007.1
20260505091506 5 73 6.4 20.9 0.05 0.48 0.48 99 1007.1
20260505091005 5 78 6.4 20.9 0.10 0.48 0.48 99 1006.9
20260505090506 5 88 8.0 20.9 0.05 0.46 0.46 99 1007.0
20260505085506 5 68 3.2 29.0 0.05 0.46 0.46 99 1006.8
20260505085005 5 74 3.2 25.7 0.05 0.46 0.46 99 1006.9
20260505084506 5 72 6.4 25.7 0.05 0.46 0.46 99 1006.9
20260505084005 5 80 12.9 25.7 0.05 0.46 0.46 99 1006.7
20260505083506 5 84 16.1 25.7 0.05 0.46 0.46 99 1006.4
20260505083005 5 73 9.7 24.1 0.05 0.43 0.43 99 1006.9
20260505081506 5 65 3.2 22.5 0.15 0.43 0.43 99 1006.6
20260505080006 5 62 8.0 25.7 0.20 0.38 0.38 99 1006.6
20260505075505 5 63 3.2 17.7 0.23 0.38 0.38 99 1006.9
20260505075006 5 62 8.0 27.4 0.28 0.38 0.38 99 1006.7
20260505074006 5 66 6.4 29.0 0.33 0.38 0.38 99 1006.7
20260505073505 5 73 8.0 29.0 0.33 0.38 0.38 99 1006.6
20260505073005 5 72 6.4 17.7 0.30 0.36 0.36 99 1006.8
20260505072005 5 95 9.7 22.5 0.23 0.30 0.30 99 1006.6
20260505071506 5 93 6.4 25.7 0.20 0.28 0.28 99 1006.9
20260505071005 5 84 11.3 25.7 0.18 0.23 0.23 99 1006.6
20260505070506 5 77 11.3 20.9 0.18 0.20 0.20 99 1006.6
20260505070006 5 71 8.0 17.7 0.15 0.18 0.18 99 1006.8
20260505065006 5 72 4.8 14.5 0.10 0.13 0.13 99 1006.9
20260505064505 5 79 4.8 12.9 0.05 0.10 0.10 99 1006.9
20260505064006 5 80 4.8 14.5 0.03 0.05 0.05 99 1007.0
20260505063505 5 73 6.4 17.7 0.03 0.05 0.05 99 1007.0
20260505062505 6 82 4.8 14.5 0.05 0.05 0.05 98 1007.0
20260505061005 6 67 3.2 14.5 0.05 0.05 0.05 97 1006.8
20260505060505 6 65 6.4 14.5 0.03 0.03 0.03 97 1006.8